Location: Three Forks Visitor's Center
(58.3672°N, 155.3776°W)
Time: 01:00:57
(UTC-09:00)

Amateur Radio Satellites - All Passes

Search period start: 23 January 2018 00:30
Search period end: 24 January 2018 00:30
Location: Three Forks Visitor's Center, 58.3672°N, 155.3776°W

Satellite Date Start Highest point End Downlink Frequencies (MHz)
Time Altitude Azimuth
TIGRISAT 23 Jan 00:43:31 00:47:46 34° 300° (WNW) 00:52:00 435.000
ISS 23 Jan 00:47:45 00:50:29 25° 184° (S) 00:53:14 437.550
MOZHAYETS 4 23 Jan 00:48:35 00:49:34 11° 38° (NE) 00:50:34
POLYITAN 1 23 Jan 00:51:52 00:55:38 29° 94° (E) 00:59:23 437.675
YUBILEINY 23 Jan 00:59:02 01:07:52 79° 286° (WNW) 01:16:43 435.215
UNISAT 6 23 Jan 00:59:44 01:03:36 26° 305° (NW) 01:07:30 437.425
NANOSAT C BR1 23 Jan 01:05:04 01:08:57 33° 95° (E) 01:12:50 145.865
BUGSAT 1 23 Jan 01:05:56 01:06:31 10° 81° (E) 01:07:06 437.445
50 SAT 23 Jan 01:06:38 01:09:03 21° 60° (ENE) 01:11:29 437.505
BEESAT 23 Jan 01:17:32 01:19:37 13° 39° (NE) 01:21:42 436.000
SPROUT 23 Jan 01:20:36 01:24:39 41° 262° (W) 01:28:45 437.525
AIST 2D 23 Jan 01:21:27 01:24:53 55° 290° (WNW) 01:28:16 435.315
QB50P2 23 Jan 01:21:37 01:25:51 54° 101° (E) 01:30:04 145.880/145.840
UKube-1 23 Jan 01:33:41 01:37:38 37° 61° (ENE) 01:41:37 .
VELOX 1 23 Jan 01:42:37 01:46:47 43° 261° (W) 01:51:01 145.980
DUCHIFAT 1 23 Jan 01:47:10 01:51:27 64° 103° (ESE) 01:55:41 145.980
DX 1 23 Jan 01:50:28 01:54:46 70° 70° (ENE) 01:59:06 434.975-435.025
EO-79 23 Jan 01:51:37 01:55:57 86° 110° (ESE) 02:00:14 145.935-145.965
O/OREOS (USA 219) 23 Jan 01:59:43 02:04:10 64° 120° (ESE) 02:08:38 437.305
nSIGHT-1 23 Jan 02:00:50 02:02:49 16° 202° (SSW) 02:04:49 .
PRISM 23 Jan 02:01:50 02:05:01 22° 305° (NW) 02:08:12 437.425
ITUPSAT 1 23 Jan 02:14:42 02:18:37 25° 52° (NE) 02:22:32 437.325
MOZHAYETS 4 23 Jan 02:21:19 02:25:33 36° 60° (ENE) 02:29:49
TIGRISAT 23 Jan 02:22:31 02:23:15 10° 322° (NW) 02:23:58 435.000
ISS 23 Jan 02:24:12 02:26:16 16° 203° (SSW) 02:28:20 437.550
POLYITAN 1 23 Jan 02:27:27 02:31:39 51° 294° (WNW) 02:35:49 437.675
Oscar 19 23 Jan 02:27:51 02:32:34 34° 94° (E) 02:37:14 437.125/150
CUBESAT XI-V 23 Jan 02:32:21 02:35:37 19° 50° (NE) 02:38:52 437.345
Gurwin Techsat 1B 23 Jan 02:33:42 02:38:26 31° 93° (E) 02:43:06 435.225
50 SAT 23 Jan 02:37:36 02:40:33 42° 260° (W) 02:43:33 437.505
BUGSAT 1 23 Jan 02:38:36 02:42:49 56° 102° (ESE) 02:47:00 437.445
AO-91 23 Jan 02:40:29 02:44:41 46° 99° (E) 02:49:18 145.960
NANOSAT C BR1 23 Jan 02:40:43 02:44:47 44° 296° (WNW) 02:48:51 145.865
BEESAT 23 Jan 02:51:50 02:56:19 42° 61° (ENE) 03:00:51 436.000
AIST 2D 23 Jan 02:56:40 02:57:19 10° 311° (NW) 02:57:57 435.315
QB50P2 23 Jan 02:57:44 03:01:27 29° 302° (WNW) 03:05:10 145.880/145.840
YUBILEINY 23 Jan 02:58:44 03:06:16 30° 313° (NW) 03:13:48 435.215
AO-7 23 Jan 03:03:34 03:08:34 17° 78° (ENE) 03:13:32 .
UKube-1 23 Jan 03:09:34 03:13:39 41° 261° (W) 03:17:45 .
DUCHIFAT 1 23 Jan 03:23:17 03:26:48 25° 304° (WNW) 03:30:18 145.980
EO-79 23 Jan 03:28:03 03:31:13 20° 307° (NW) 03:34:23 145.935-145.965
DX 1 23 Jan 03:28:03 03:31:25 22° 269° (W) 03:34:47 434.975-435.025
KKS-1 23 Jan 03:33:56 03:36:25 15° 45° (NE) 03:38:53 437.445
O/OREOS (USA 219) 23 Jan 03:39:50 03:43:55 33° 322° (NW) 03:48:01 437.305
ITAMSAT 1 23 Jan 03:41:03 03:43:11 12° 80° (E) 03:45:17 435.822/435.867
STARS 23 Jan 03:44:54 03:45:16 10° 39° (NE) 03:45:39 437.465
ITUPSAT 1 23 Jan 03:51:14 03:56:02 78° 253° (WSW) 04:00:53 437.325
MOZHAYETS 4 23 Jan 03:58:08 04:02:38 48° 261° (W) 04:07:10
POLYITAN 1 23 Jan 04:04:36 04:06:33 13° 315° (NW) 04:08:30 437.675
Oscar 19 23 Jan 04:07:05 04:12:11 56° 296° (WNW) 04:17:13 437.125/150
CUBESAT XI-V 23 Jan 04:07:40 04:12:21 77° 71° (ENE) 04:17:03 437.345
Gurwin Techsat 1B 23 Jan 04:13:30 04:18:47 64° 294° (WNW) 04:24:02 435.225
BUGSAT 1 23 Jan 04:14:19 04:17:57 28° 302° (WNW) 04:21:35 437.445
AO-91 23 Jan 04:17:12 04:21:06 35° 297° (WNW) 04:25:24 145.960
NANOSAT C BR1 23 Jan 04:18:07 04:19:32 11° 317° (NW) 04:20:58 145.865
BEESAT 23 Jan 04:29:38 04:34:09 41° 262° (W) 04:38:43 436.000
AO-7 23 Jan 04:55:12 05:03:27 55° 103° (ESE) 05:11:37 .
STRAND 1 23 Jan 04:57:00 04:58:58 12° 35° (NE) 05:00:56 437.568
YUBILEINY 23 Jan 05:02:03 05:06:53 15° 345° (NNW) 05:11:43 435.215
KKS-1 23 Jan 05:07:50 05:12:10 58° 66° (ENE) 05:16:32 437.445
STARS 23 Jan 05:16:31 05:20:30 36° 60° (ENE) 05:24:31 437.465
ITAMSAT 1 23 Jan 05:18:41 05:23:50 55° 102° (ESE) 05:28:57 435.822/435.867
O/OREOS (USA 219) 23 Jan 05:21:48 05:24:39 16° 346° (NNW) 05:27:30 437.305
ITUPSAT 1 23 Jan 05:31:40 05:34:40 16° 275° (W) 05:37:42 437.325
FO-29 23 Jan 05:33:59 05:37:03 15° 37° (NE) 05:39:59 435.910
CUBESAT XI-V 23 Jan 05:46:39 05:50:15 22° 271° (W) 05:53:53 437.345
Oscar 19 23 Jan 05:47:19 05:50:35 17° 318° (NW) 05:53:50 437.125/150
Gurwin Techsat 1B 23 Jan 05:54:14 05:57:54 19° 316° (NW) 06:01:32 435.225
DOVE 4 23 Jan 05:55:45 05:59:50 41° 98° (E) 06:04:06 437.250
M-CUBED/EXP-1 PRIME 23 Jan 05:57:05 05:59:23 17° 97° (E) 06:01:37 437.505
XW-2C 23 Jan 06:15:39 06:17:18 12° 85° (E) 06:18:55 145.795 - 145.815
LilacSat-2 23 Jan 06:16:42 06:18:40 14° 86° (E) 06:20:36 437.200
SO-50 23 Jan 06:30:15 06:34:14 32° 125° (SE) 06:38:17 436.795
STRAND 1 23 Jan 06:32:15 06:36:54 37° 58° (ENE) 06:41:35 437.568
KAITUO 1B 23 Jan 06:42:14 06:44:34 16° 88° (E) 06:46:52 145.475/437.950
KKS-1 23 Jan 06:45:18 06:49:03 26° 267° (W) 06:52:50 437.445
NUDT-PHONESAT 23 Jan 06:48:03 06:50:30 17° 88° (E) 06:52:56 437.300
AO-7 23 Jan 06:48:14 06:56:24 58° 307° (NW) 07:04:31 .
XW-2F 23 Jan 06:48:22 06:51:20 22° 91° (E) 06:54:16 145.980 - 146.000
STARS 23 Jan 06:52:38 06:56:48 43° 261° (W) 07:01:02 437.465
CUBEBUG 2 23 Jan 06:54:21 06:54:54 10° 78° (ENE) 06:55:27 437.445
ITAMSAT 1 23 Jan 06:58:26 07:03:11 37° 303° (WNW) 07:07:55 435.822/435.867
XW-2D 23 Jan 07:00:16 07:03:38 30° 95° (E) 07:06:58 145.860 - 145.880
RS-15 23 Jan 07:02:14 07:08:40 16° 91° (E) 07:15:01 29.354- 29.394
O/OREOS (USA 219) 23 Jan 07:03:02 07:05:49 16° 12° (NNE) 07:08:37 437.305
YUBILEINY 23 Jan 07:03:26 07:08:33 16° 19° (NNE) 07:13:37 435.215
CUTE-I 23 Jan 07:11:06 07:15:56 33° 94° (E) 07:20:45 437.470
FO-29 23 Jan 07:15:10 07:21:01 43° 60° (ENE) 07:26:17 435.910
XW-2B 23 Jan 07:17:52 07:21:28 41° 98° (E) 07:25:02 145.730 - 145.750
UNISAT 6 23 Jan 07:21:50 07:22:14 10° 38° (NE) 07:22:39 437.425
SEEDS 23 Jan 07:30:12 07:32:45 16° 86° (E) 07:35:17 437.485
M-CUBED/EXP-1 PRIME 23 Jan 07:30:48 07:34:13 62° 298° (WNW) 07:37:29 437.505
DOVE 4 23 Jan 07:33:37 07:37:33 37° 298° (WNW) 07:41:40 437.250
CUTE 1.7 + AOD 2 23 Jan 07:47:32 07:51:18 30° 94° (E) 07:55:03 437.475
XW-2C 23 Jan 07:48:20 07:52:08 80° 105° (ESE) 07:55:54 145.795 - 145.815
HO-68 23 Jan 07:48:21 07:54:58 38° 94° (E) 08:01:32 435.675
LilacSat-2 23 Jan 07:49:43 07:53:33 88° 97° (E) 07:57:20 437.200
SO-50 23 Jan 08:09:53 08:14:24 76° 327° (NNW) 08:19:03 436.795
STRAND 1 23 Jan 08:10:59 08:15:59 53° 259° (W) 08:21:01 437.568
KAITUO 1B 23 Jan 08:15:18 08:19:01 76° 288° (WNW) 08:22:42 145.475/437.950
NUDT-PHONESAT 23 Jan 08:21:05 08:24:46 70° 289° (WNW) 08:28:25 437.300
XW-2F 23 Jan 08:22:03 08:25:43 54° 292° (WNW) 08:29:22 145.980 - 146.000
UWE-3 23 Jan 08:27:37 08:31:52 33° 93° (E) 08:36:04 435.000/436.395/437.385
CUBEBUG 2 23 Jan 08:28:01 08:32:40 50° 99° (E) 08:37:17 437.445
XW-2D 23 Jan 08:34:21 08:37:53 39° 295° (WNW) 08:41:24 145.860 - 145.880
AAUSAT CUBESAT 2 23 Jan 08:37:58 08:41:33 28° 93° (E) 08:45:06 437.432
TIGRISAT 23 Jan 08:38:01 08:41:47 26° 55° (NE) 08:45:36 435.000
ITAMSAT 1 23 Jan 08:39:16 08:41:23 13° 325° (NW) 08:43:30 435.822/435.867
AO-7 23 Jan 08:41:05 08:47:46 28° 332° (NNW) 08:54:27 .
O/OREOS (USA 219) 23 Jan 08:42:34 08:46:36 31° 37° (NE) 08:50:37 437.305
ZACube-1 23 Jan 08:45:03 08:49:01 27° 91° (E) 08:52:54 437.345
AO-73 23 Jan 08:50:03 08:53:59 27° 91° (E) 08:57:49 145.935
CUTE-I 23 Jan 08:51:04 08:56:19 59° 295° (WNW) 09:01:32 437.470
XW-2B 23 Jan 08:52:14 08:55:33 29° 299° (WNW) 08:58:50 145.730 - 145.750
UNISAT 6 23 Jan 08:53:38 08:57:44 34° 60° (ENE) 09:01:55 437.425
FO-29 23 Jan 08:59:56 09:06:08 52° 259° (W) 09:11:42 435.910
YUBILEINY 23 Jan 09:01:08 09:08:56 33° 51° (NE) 09:16:38 435.215
SEEDS 23 Jan 09:04:53 09:09:05 89° 107° (ESE) 09:13:15 437.485
M-CUBED/EXP-1 PRIME 23 Jan 09:06:20 09:07:59 13° 320° (NW) 09:09:35 437.505
RS-15 23 Jan 09:06:27 09:17:56 49° 117° (ESE) 09:29:09 29.354- 29.394
Oscar 11 23 Jan 09:20:10 09:24:03 31° 94° (E) 09:27:54 .
CUTE 1.7 + AOD 2 23 Jan 09:23:15 09:27:19 46° 295° (WNW) 09:31:20 437.475
XW-2C 23 Jan 09:23:16 09:25:52 18° 305° (NW) 09:28:27 145.795 - 145.815
LilacSat-2 23 Jan 09:24:49 09:27:20 17° 306° (NW) 09:29:49 437.200
XW-2A 23 Jan 09:30:44 09:34:06 68° 102° (ESE) 09:37:27 145.665 - 145.685
HO-68 23 Jan 09:36:06 09:43:14 70° 297° (WNW) 09:50:20 435.675
PCSat 23 Jan 09:38:40 09:41:27 14° 105° (ESE) 09:44:14 145.827
PRISM 23 Jan 09:48:51 09:52:22 29° 58° (ENE) 09:55:52 437.425
KAITUO 1B 23 Jan 09:50:23 09:52:23 14° 309° (NW) 09:54:24 145.475/437.950
SO-50 23 Jan 09:51:05 09:55:24 40° 351° (N) 09:59:50 436.795
STRAND 1 23 Jan 09:54:38 09:56:23 12° 281° (W) 09:58:08 437.568
NUDT-PHONESAT 23 Jan 09:56:09 09:57:58 13° 309° (NW) 09:59:47 437.300
XW-2F 23 Jan 09:57:52 09:59:02 11° 312° (NW) 10:00:15 145.980 - 146.000
UWE-3 23 Jan 10:03:58 10:08:31 51° 294° (WNW) 10:13:02 435.000/436.395/437.385
CUBEBUG 2 23 Jan 10:04:51 10:09:11 36° 299° (WNW) 10:13:31 437.445
AAUSAT CUBESAT 2 23 Jan 10:13:14 10:17:12 48° 294° (WNW) 10:21:09 437.432
TIGRISAT 23 Jan 10:13:35 10:18:06 70° 256° (WSW) 10:22:45 435.000
POLYITAN 1 23 Jan 10:19:00 10:21:29 15° 48° (NE) 10:23:59 437.675
ZACube-1 23 Jan 10:21:05 10:25:37 58° 292° (WNW) 10:30:03 437.345
O/OREOS (USA 219) 23 Jan 10:21:55 10:26:24 69° 240° (WSW) 10:30:52 437.305
DELFI C3 23 Jan 10:22:28 10:25:51 27° 93° (E) 10:29:14 145.870
Max Valier Satellite 23 Jan 10:25:47 10:28:39 20° 91° (E) 10:31:28 145.860
AO-73 23 Jan 10:26:01 10:30:32 58° 292° (WNW) 10:34:57 145.935
UNISAT 6 23 Jan 10:29:56 10:34:19 49° 261° (W) 10:38:51 437.425
AIST 2D 23 Jan 10:30:50 10:33:52 28° 63° (ENE) 10:36:56 435.315
NANOSAT C BR1 23 Jan 10:31:30 10:34:13 17° 50° (NE) 10:36:56 145.865
CUTE-I 23 Jan 10:31:58 10:35:27 18° 317° (NW) 10:38:58 437.470
AO-7 23 Jan 10:32:32 10:38:07 20° 359° (N) 10:43:43 .
EO-88 23 Jan 10:37:41 10:40:18 18° 90° (E) 10:42:55 145.990 - 145.960
SEEDS 23 Jan 10:41:19 10:44:16 19° 307° (NW) 10:47:12 437.485
Oscar 19 23 Jan 10:41:26 10:41:53 10° 30° (NNE) 10:42:22 437.125/150
BEESAT 3 23 Jan 10:47:08 10:50:43 33° 127° (SE) 10:54:20 437.485
QB50P2 23 Jan 10:47:42 10:51:09 24° 56° (NE) 10:54:37 145.880/145.840
FO-29 23 Jan 10:50:02 10:52:31 12° 281° (W) 10:54:56 435.910
Gurwin Techsat 1B 23 Jan 10:50:27 10:51:05 10° 29° (NNE) 10:51:43 435.225
Oscar 11 23 Jan 10:56:11 11:00:22 47° 295° (WNW) 11:04:31 .
YUBILEINY 23 Jan 10:58:13 11:07:03 88° 77° (ENE) 11:15:46 435.215
CUTE 1.7 + AOD 2 23 Jan 11:00:48 11:02:13 11° 316° (NW) 11:03:38 437.475
XW-2A 23 Jan 11:04:09 11:06:26 17° 304° (WNW) 11:08:42 145.665 - 145.685
DUCHIFAT 1 23 Jan 11:12:17 11:15:52 27° 58° (ENE) 11:19:30 145.980
EO-79 23 Jan 11:16:57 11:20:49 35° 61° (ENE) 11:24:43 145.935-145.965
RS-15 23 Jan 11:17:24 11:29:48 86° 325° (NW) 11:41:47 29.354- 29.394
PCSat 23 Jan 11:18:30 11:23:46 55° 127° (SE) 11:29:05 145.827
PRISM 23 Jan 11:23:31 11:27:28 50° 259° (W) 11:31:27 437.425
HO-68 23 Jan 11:24:16 11:30:01 27° 321° (NW) 11:35:46 435.675
SO-50 23 Jan 11:32:14 11:36:40 44° 15° (NNE) 11:41:12 436.795
UWE-3 23 Jan 11:41:38 11:44:02 14° 316° (NW) 11:46:25 435.000/436.395/437.385
BEESAT 2 23 Jan 11:42:17 11:45:56 33° 127° (SE) 11:49:37 435.950
CUBEBUG 2 23 Jan 11:43:29 11:44:36 11° 321° (NW) 11:45:43 437.445
LO-87 23 Jan 11:47:33 11:50:01 17° 89° (E) 11:52:27 145.935 - 145.965
AAUSAT CUBESAT 2 23 Jan 11:50:23 11:51:46 12° 315° (NW) 11:53:11 437.432
POLYITAN 1 23 Jan 11:52:19 11:56:32 65° 69° (ENE) 12:00:49 437.675
TIGRISAT 23 Jan 11:53:19 11:55:42 14° 278° (W) 11:58:05 435.000
DELFI C3 23 Jan 11:57:00 12:00:47 46° 294° (WNW) 12:04:34 145.870
ZACube-1 23 Jan 11:58:26 12:01:02 15° 314° (NW) 12:03:38 437.345
Max Valier Satellite 23 Jan 11:59:06 12:02:47 57° 290° (WNW) 12:06:24 145.860
ESTCUBE 1 23 Jan 12:01:04 12:04:33 22° 89° (E) 12:08:00 437.505/2401.250
BUGSAT 1 23 Jan 12:02:12 12:05:32 24° 55° (NE) 12:08:54 437.445
O/OREOS (USA 219) 23 Jan 12:02:42 12:05:02 14° 260° (W) 12:07:21 437.305
AO-73 23 Jan 12:03:20 12:05:55 15° 314° (NW) 12:08:30 145.935
AIST 2D 23 Jan 12:03:39 12:06:58 38° 262° (W) 12:10:17 435.315
NANOSAT C BR1 23 Jan 12:05:03 12:09:17 74° 70° (ENE) 12:13:33 145.865
EO-88 23 Jan 12:10:41 12:14:18 61° 290° (WNW) 12:17:53 145.990 - 145.960
AO-91 23 Jan 12:11:57 12:14:21 17° 52° (NE) 12:16:53 145.960
Oscar 19 23 Jan 12:15:20 12:19:44 29° 53° (NE) 12:24:08 437.125/150
AO-7 23 Jan 12:21:53 12:28:25 27° 26° (NNE) 12:34:58 .
QB50P2 23 Jan 12:22:21 12:26:36 68° 257° (WSW) 12:30:53 145.880/145.840
BEESAT 3 23 Jan 12:24:06 12:28:05 65° 329° (NNW) 12:32:03 437.485
Gurwin Techsat 1B 23 Jan 12:25:02 12:29:30 28° 52° (NE) 12:33:58 435.225
Oscar 11 23 Jan 12:33:52 12:35:35 12° 316° (NW) 12:37:19 .
DUCHIFAT 1 23 Jan 12:47:08 12:51:18 57° 258° (WSW) 12:55:32 145.980
EO-79 23 Jan 12:52:29 12:56:32 42° 262° (W) 13:00:38 145.935-145.965
YUBILEINY 23 Jan 12:55:38 13:02:56 31° 283° (WNW) 13:10:13 435.215
SPROUT 23 Jan 12:57:14 13:00:28 20° 89° (E) 13:03:41 437.525
PCSat 23 Jan 13:01:58 13:07:18 54° 330° (NNW) 13:12:39 145.827
HO-68 23 Jan 13:11:58 13:15:37 15° 346° (NNW) 13:19:17 435.675
SO-50 23 Jan 13:12:52 13:17:31 85° 220° (SW) 13:22:17 436.795
AO-85 23 Jan 13:15:14 13:19:05 39° 128° (SE) 13:23:14 145.980
BEESAT 2 23 Jan 13:19:27 13:23:29 65° 329° (NNW) 13:27:32 435.950
LO-87 23 Jan 13:20:11 13:23:49 69° 289° (WNW) 13:27:27 145.935 - 145.965
VELOX 1 23 Jan 13:23:37 13:26:56 20° 89° (E) 13:30:15 145.980
POLYITAN 1 23 Jan 13:29:18 13:32:43 23° 269° (W) 13:36:09 437.675
ITAMSAT 1 23 Jan 13:30:24 13:33:10 15° 38° (NE) 13:35:55 435.822/435.867
RS-15 23 Jan 13:31:21 13:43:32 65° 356° (N) 13:55:11 29.354- 29.394
DELFI C3 23 Jan 13:33:44 13:34:39 11° 314° (NW) 13:35:35 145.870
Max Valier Satellite 23 Jan 13:34:31 13:35:51 12° 311° (NW) 13:37:10 145.860
BUGSAT 1 23 Jan 13:36:26 13:40:32 67° 256° (WSW) 13:44:45 437.445
ESTCUBE 1 23 Jan 13:37:20 13:41:51 73° 291° (WNW) 13:46:19 437.505/2401.250
NANOSAT C BR1 23 Jan 13:42:21 13:45:29 20° 271° (W) 13:48:38 145.865
EO-88 23 Jan 13:45:48 13:47:15 12° 310° (NW) 13:48:41 145.990 - 145.960
AO-91 23 Jan 13:46:52 13:50:21 77° 254° (WSW) 13:54:08 145.960
Oscar 19 23 Jan 13:53:28 13:58:41 76° 254° (WSW) 14:03:55 437.125/150
QB50P2 23 Jan 14:01:24 14:03:14 12° 277° (W) 14:05:04 145.880/145.840
BEESAT 3 23 Jan 14:02:30 14:06:09 33° 352° (N) 14:09:47 437.485
Gurwin Techsat 1B 23 Jan 14:03:42 14:09:02 79° 253° (WSW) 14:14:24 435.225
AO-7 23 Jan 14:11:38 14:19:40 54° 51° (NE) 14:27:45 .
DUCHIFAT 1 23 Jan 14:27:15 14:27:55 10° 279° (W) 14:28:36 145.980
SPROUT 23 Jan 14:32:31 14:36:50 74° 290° (WNW) 14:41:08 437.525
PCSat 23 Jan 14:46:45 14:51:42 34° 354° (N) 14:56:39 145.827
UKube-1 23 Jan 14:47:43 14:50:49 19° 89° (E) 14:53:54 .
SO-50 23 Jan 14:53:46 14:57:31 24° 239° (WSW) 15:01:19 436.795
LO-87 23 Jan 14:54:52 14:56:34 13° 309° (NW) 14:58:18 145.935 - 145.965
AO-85 23 Jan 14:55:09 14:59:22 63° 331° (NNW) 15:03:58 145.980
HO-68 23 Jan 14:57:08 15:00:44 15° 13° (NNE) 15:04:20 435.675
BEESAT 2 23 Jan 14:58:02 15:01:46 34° 352° (N) 15:05:29 435.950
VELOX 1 23 Jan 14:59:28 15:03:54 75° 290° (WNW) 15:08:17 145.980
DX 1 23 Jan 15:05:46 15:09:49 37° 97° (E) 15:13:52 434.975-435.025
ITAMSAT 1 23 Jan 15:06:38 15:11:32 45° 61° (ENE) 15:16:28 435.822/435.867
50 SAT 23 Jan 15:14:39 15:17:35 36° 99° (E) 15:20:30 437.505
ESTCUBE 1 23 Jan 15:15:01 15:17:59 18° 311° (NW) 15:20:57 437.505/2401.250
BUGSAT 1 23 Jan 15:15:11 15:16:45 12° 277° (W) 15:18:21 437.445
M-CUBED/EXP-1 PRIME 23 Jan 15:16:16 15:19:26 23° 49° (NE) 15:22:25 437.505
AO-91 23 Jan 15:26:52 15:27:43 11° 278° (W) 15:28:34 145.960
CUTE-I 23 Jan 15:27:36 15:28:57 11° 31° (NNE) 15:30:17 437.470
DOVE 4 23 Jan 15:33:43 15:36:51 21° 55° (NE) 15:40:00 437.250
Oscar 19 23 Jan 15:35:31 15:38:54 17° 276° (W) 15:42:18 437.125/150
BEESAT 3 23 Jan 15:40:43 15:44:27 37° 15° (NNE) 15:48:08 437.485
ITUPSAT 1 23 Jan 15:43:38 15:46:28 15° 84° (E) 15:49:18 437.325
MOZHAYETS 4 23 Jan 15:44:09 15:47:56 24° 90° (E) 15:51:39
RS-15 23 Jan 15:45:18 15:57:28 79° 28° (NNE) 16:08:57 29.354- 29.394
Gurwin Techsat 1B 23 Jan 15:46:13 15:49:51 18° 275° (W) 15:53:31 435.225
CUBESAT XI-V 23 Jan 15:57:17 15:58:31 11° 80° (E) 15:59:45 437.345
AO-7 23 Jan 16:04:13 16:12:29 60° 255° (WSW) 16:20:48 .
SPROUT 23 Jan 16:09:20 16:12:06 17° 310° (NW) 16:14:52 437.525
XW-2D 23 Jan 16:18:20 16:19:35 11° 48° (NE) 16:20:50 145.860 - 145.880
BEESAT 23 Jan 16:20:22 16:24:31 28° 93° (E) 16:28:39 436.000
UKube-1 23 Jan 16:23:03 16:27:22 80° 290° (WNW) 16:31:42 .
PCSat 23 Jan 16:31:08 16:36:17 41° 20° (NNE) 16:41:25 145.827
XW-2B 23 Jan 16:35:03 16:37:09 14° 51° (NE) 16:39:15 145.730 - 145.750
AO-85 23 Jan 16:36:19 16:40:27 37° 356° (N) 16:44:56 145.980
BEESAT 2 23 Jan 16:36:26 16:40:15 38° 15° (NNE) 16:44:02 435.950
VELOX 1 23 Jan 16:36:47 16:39:43 18° 311° (NW) 16:42:38 145.980
HO-68 23 Jan 16:40:38 16:46:19 27° 38° (NE) 16:52:00 435.675
DX 1 23 Jan 16:42:00 16:46:05 41° 298° (WNW) 16:50:10 434.975-435.025
ITAMSAT 1 23 Jan 16:46:10 16:51:05 43° 262° (W) 16:56:03 435.822/435.867
50 SAT 23 Jan 16:46:34 16:49:10 24° 299° (WNW) 16:51:45 437.505
M-CUBED/EXP-1 PRIME 23 Jan 16:49:27 16:53:34 72° 249° (WSW) 16:57:23 437.505
CUTE-I 23 Jan 17:02:57 17:07:32 30° 53° (NE) 17:12:07 437.470
XW-2C 23 Jan 17:04:24 17:07:27 23° 58° (ENE) 17:10:30 145.795 - 145.815
LilacSat-2 23 Jan 17:06:12 17:09:23 25° 59° (ENE) 17:12:35 437.200
DOVE 4 23 Jan 17:10:00 17:14:11 75° 256° (WSW) 17:18:22 437.250
CUTE 1.7 + AOD 2 23 Jan 17:14:50 17:17:15 15° 49° (NE) 17:19:39 437.475
BEESAT 3 23 Jan 17:18:21 17:22:22 90° 105° (ESE) 17:26:16 437.485
ITUPSAT 1 23 Jan 17:20:19 17:25:10 73° 106° (ESE) 17:30:00 437.325
MOZHAYETS 4 23 Jan 17:20:54 17:25:33 69° 290° (WNW) 17:30:08
KAITUO 1B 23 Jan 17:29:47 17:33:00 28° 61° (ENE) 17:36:13 145.475/437.950
CUBESAT XI-V 23 Jan 17:32:23 17:36:57 55° 101° (E) 17:41:29 437.345
NUDT-PHONESAT 23 Jan 17:34:39 17:37:55 29° 61° (ENE) 17:41:09 437.300
XW-2F 23 Jan 17:36:53 17:40:25 38° 65° (ENE) 17:43:57 145.980 - 146.000
XW-2D 23 Jan 17:49:15 17:52:59 53° 68° (ENE) 17:56:42 145.860 - 145.880
BEESAT 23 Jan 17:57:54 18:02:40 62° 294° (WNW) 18:07:23 436.000
RS-15 23 Jan 17:58:13 18:09:39 57° 238° (WSW) 18:20:29 29.354- 29.394
UWE-3 23 Jan 17:58:22 18:01:23 18° 48° (NE) 18:04:25 435.000/436.395/437.385
CUBEBUG 2 23 Jan 17:59:02 18:02:40 24° 54° (NE) 18:06:24 437.445
UKube-1 23 Jan 17:59:53 18:02:49 18° 310° (NW) 18:05:45 .
AO-7 23 Jan 18:01:39 18:07:10 19° 280° (W) 18:12:44 .
AAUSAT CUBESAT 2 23 Jan 18:03:21 18:05:18 13° 47° (NE) 18:07:15 437.432
XW-2B 23 Jan 18:06:54 18:10:43 73° 72° (ENE) 18:14:32 145.730 - 145.750
BEESAT 2 23 Jan 18:14:17 18:18:21 89° 207° (SSW) 18:22:23 435.950
PCSat 23 Jan 18:14:45 18:20:14 90° 222° (SW) 18:25:41 145.827
ZACube-1 23 Jan 18:15:06 18:17:43 15° 46° (NE) 18:20:21 437.345
AO-85 23 Jan 18:17:14 18:21:40 47° 19° (NNE) 18:26:29 145.980
AO-73 23 Jan 18:19:51 18:22:25 15° 46° (NE) 18:25:00 145.935
DX 1 23 Jan 18:19:59 18:21:16 11° 319° (NW) 18:22:33 434.975-435.025
HO-68 23 Jan 18:25:58 18:33:03 68° 62° (ENE) 18:40:10 435.675
KKS-1 23 Jan 18:26:11 18:30:15 33° 96° (E) 18:34:18 437.445
M-CUBED/EXP-1 PRIME 23 Jan 18:26:45 18:28:32 13° 266° (W) 18:30:17 437.505
SEEDS 23 Jan 18:29:34 18:33:20 33° 61° (ENE) 18:37:06 437.485
STARS 23 Jan 18:33:04 18:36:19 20° 89° (E) 18:39:33 437.465
XW-2C 23 Jan 18:37:34 18:41:21 58° 258° (WSW) 18:45:09 145.795 - 145.815
XW-2A 23 Jan 18:38:35 18:40:39 15° 55° (NE) 18:42:43 145.665 - 145.685
LilacSat-2 23 Jan 18:39:41 18:43:27 52° 259° (W) 18:47:14 437.200
CUTE-I 23 Jan 18:41:57 18:47:15 72° 255° (WSW) 18:52:36 437.470
CUTE 1.7 + AOD 2 23 Jan 18:48:08 18:52:22 65° 70° (ENE) 18:56:35 437.475
Oscar 11 23 Jan 18:49:10 18:51:51 16° 49° (NE) 18:54:32 .
DOVE 4 23 Jan 18:50:49 18:52:42 13° 277° (W) 18:54:34 437.250
BEESAT 3 23 Jan 18:56:24 18:59:26 21° 239° (WSW) 19:02:25 437.485
NO-84 23 Jan 18:57:52 19:00:21 24° 158° (SSE) 19:02:45 435.350 FM
ITUPSAT 1 23 Jan 18:58:36 19:02:38 27° 306° (NW) 19:06:38 437.325
MOZHAYETS 4 23 Jan 18:58:56 19:01:59 18° 312° (NW) 19:05:01
KAITUO 1B 23 Jan 19:03:14 19:06:51 44° 261° (W) 19:10:28 145.475/437.950
NUDT-PHONESAT 23 Jan 19:08:04 19:11:38 41° 261° (W) 19:15:12 437.300
CUBESAT XI-V 23 Jan 19:10:05 19:14:09 31° 302° (WNW) 19:18:11 437.345
XW-2F 23 Jan 19:11:10 19:14:36 31° 265° (W) 19:18:01 145.980 - 146.000
XW-2D 23 Jan 19:24:20 19:27:25 23° 268° (W) 19:30:31 145.860 - 145.880
UWE-3 23 Jan 19:32:34 19:37:05 70° 70° (ENE) 19:41:44 435.000/436.395/437.385
CUBEBUG 2 23 Jan 19:34:20 19:38:51 78° 256° (WSW) 19:43:33 437.445
AAUSAT CUBESAT 2 23 Jan 19:35:55 19:39:58 57° 69° (ENE) 19:44:01 437.432
BEESAT 23 Jan 19:36:36 19:39:38 17° 315° (NW) 19:42:40 436.000
XW-2B 23 Jan 19:42:45 19:45:20 17° 272° (W) 19:47:55 145.730 - 145.750
DELFI C3 23 Jan 19:44:08 19:45:23 11° 47° (NE) 19:46:40 145.870
ZACube-1 23 Jan 19:48:42 19:53:10 58° 67° (ENE) 19:57:42 437.345
BEESAT 2 23 Jan 19:52:30 19:55:37 22° 239° (WSW) 19:58:42 435.950
AO-73 23 Jan 19:53:21 19:57:48 58° 68° (ENE) 20:02:19 145.935
AO-85 23 Jan 19:57:41 20:02:25 74° 221° (SW) 20:07:30 145.980
PCSat 23 Jan 19:58:38 20:03:06 26° 246° (WSW) 20:07:32 145.827
FO-29 23 Jan 20:00:30 20:02:56 13° 80° (E) 20:05:21 435.910
KKS-1 23 Jan 20:02:41 20:06:58 47° 296° (WNW) 20:11:15 437.445
SEEDS 23 Jan 20:04:54 20:08:57 44° 262° (W) 20:13:00 437.485
STARS 23 Jan 20:08:45 20:13:12 80° 290° (WNW) 20:17:38 437.465
XW-2A 23 Jan 20:09:28 20:12:54 83° 257° (WSW) 20:16:20 145.665 - 145.685
RS-15 23 Jan 20:11:49 20:19:14 20° 265° (W) 20:26:28 29.354- 29.394
STRAND 1 23 Jan 20:12:16 20:16:45 29° 92° (E) 20:21:12 437.568
HO-68 23 Jan 20:14:39 20:21:16 39° 265° (W) 20:27:56 435.675
Oscar 11 23 Jan 20:22:59 20:27:19 69° 69° (ENE) 20:31:40 .
CUTE-I 23 Jan 20:24:58 20:28:17 17° 276° (W) 20:31:37 437.470
CUTE 1.7 + AOD 2 23 Jan 20:25:13 20:28:36 22° 270° (W) 20:31:58 437.475
NO-84 23 Jan 20:34:19 20:37:06 41° 178° (S) 20:39:47 435.350 FM
UWE-3 23 Jan 21:10:21 21:14:01 23° 271° (W) 21:17:45 435.000/436.395/437.385
Max Valier Satellite 23 Jan 21:12:19 21:15:44 34° 64° (ENE) 21:19:09 145.860
AAUSAT CUBESAT 2 23 Jan 21:12:21 21:15:44 24° 269° (W) 21:19:07 437.432
CUBEBUG 2 23 Jan 21:13:35 21:16:18 15° 277° (W) 21:19:04 437.445
DELFI C3 23 Jan 21:15:31 21:19:19 50° 67° (ENE) 21:23:07 145.870
EO-88 23 Jan 21:22:59 21:26:14 31° 63° (ENE) 21:29:29 145.990 - 145.960
ZACube-1 23 Jan 21:25:53 21:29:46 27° 269° (W) 21:33:43 437.345
AO-73 23 Jan 21:30:26 21:34:20 28° 268° (W) 21:38:18 145.935
ESTCUBE 1 23 Jan 21:34:38 21:37:00 14° 45° (NE) 21:39:23 437.505/2401.250
AO-85 23 Jan 21:38:39 21:42:19 21° 241° (WSW) 21:46:08 145.980
KKS-1 23 Jan 21:40:38 21:42:35 13° 318° (NW) 21:44:32 437.445
FO-29 23 Jan 21:44:04 21:49:19 63° 103° (ESE) 21:54:30 435.910
XW-2A 23 Jan 21:45:03 21:46:10 11° 275° (W) 21:47:16 145.665 - 145.685
STARS 23 Jan 21:45:53 21:48:56 19° 310° (NW) 21:52:00 437.465
STRAND 1 23 Jan 21:51:14 21:56:21 65° 293° (WNW) 22:01:27 437.568
nSIGHT-1 23 Jan 21:53:22 21:55:13 15° 156° (SSE) 21:57:04 .
TIGRISAT 23 Jan 21:56:47 21:59:45 16° 84° (E) 22:02:44 435.000
Oscar 11 23 Jan 22:00:29 22:03:53 22° 271° (W) 22:07:19 .
NO-84 23 Jan 22:11:21 22:13:52 29° 198° (SSW) 22:16:24 435.350 FM
UNISAT 6 23 Jan 22:12:36 22:16:20 23° 89° (E) 22:20:02 437.425
YUBILEINY 23 Jan 22:16:26 22:22:55 24° 71° (ENE) 22:29:22 435.215
ISS 23 Jan 22:20:26 22:22:35 16° 158° (SSE) 22:24:44 437.550
SPROUT 23 Jan 22:25:59 22:27:28 12° 43° (NE) 22:28:57 437.525
LO-87 23 Jan 22:31:16 22:34:20 27° 61° (ENE) 22:37:26 145.935 - 145.965
Max Valier Satellite 23 Jan 22:46:06 22:49:33 34° 263° (W) 22:53:01 145.860
DELFI C3 23 Jan 22:51:03 22:54:18 25° 268° (W) 22:57:34 145.870
VELOX 1 23 Jan 22:55:18 22:57:25 13° 44° (NE) 22:59:32 145.980
EO-88 23 Jan 22:56:24 22:59:48 37° 262° (W) 23:03:16 145.990 - 145.960
PRISM 23 Jan 22:56:46 22:58:45 13° 85° (E) 23:00:44 437.425
ESTCUBE 1 23 Jan 23:08:33 23:12:57 54° 66° (ENE) 23:17:22 437.505/2401.250
AIST 2D 23 Jan 23:21:17 23:21:58 10° 84° (E) 23:22:38 435.315
nSIGHT-1 23 Jan 23:28:03 23:30:40 24° 176° (S) 23:33:18 .
FO-29 23 Jan 23:29:37 23:34:14 31° 306° (NW) 23:38:45 435.910
STRAND 1 23 Jan 23:31:14 23:34:44 19° 315° (NW) 23:38:15 437.568
TIGRISAT 23 Jan 23:32:28 23:37:13 80° 105° (ESE) 23:41:56 435.000
UNISAT 6 23 Jan 23:48:49 23:53:33 75° 289° (WNW) 23:58:14 437.425
NO-84 23 Jan 23:50:11 23:50:19 10° 218° (SW) 23:50:26 435.350 FM
ISS 23 Jan 23:55:37 23:58:22 25° 178° (S) 00:01:08 437.550
SPROUT 23 Jan 23:58:20 00:02:24 45° 64° (ENE) 00:06:30 437.525
QB50P2 23 Jan 23:59:38 00:01:28 12° 83° (E) 00:03:18 145.880/145.840
LO-87 24 Jan 00:04:10 00:07:36 42° 261° (W) 00:11:05 145.935 - 145.965
YUBILEINY 24 Jan 00:09:33 00:18:18 73° 96° (E) 00:27:03 435.215
UKube-1 24 Jan 00:17:07 00:18:56 13° 43° (NE) 00:20:46 .
DUCHIFAT 1 24 Jan 00:23:01 00:25:21 14° 85° (E) 00:27:39 145.980
